Year,Month,Day,Hour,Minute,Value (Times are PST for temperature in C)
2021,08,01,00,00,17.70
2021,08,01,00,01,17.60
2021,08,01,00,02,17.60
2021,08,01,00,03,17.60
2021,08,01,00,04,17.50
2021,08,01,00,05,17.40
2021,08,01,00,06,17.40
2021,08,01,00,07,17.30
2021,08,01,00,08,17.30
2021,08,01,00,09,17.30
2021,08,01,00,10,17.20
2021,08,01,00,11,17.20
2021,08,01,00,12,17.10
2021,08,01,00,13,17.10
2021,08,01,00,14,17.00
2021,08,01,00,15,17.00
2021,08,01,00,16,16.90
2021,08,01,00,17,16.90
2021,08,01,00,18,16.80
2021,08,01,00,19,16.80
2021,08,01,00,20,16.80
2021,08,01,00,21,16.70
2021,08,01,00,22,16.70
2021,08,01,00,23,16.70
2021,08,01,00,24,16.60
2021,08,01,00,25,16.60
2021,08,01,00,26,16.50
2021,08,01,00,27,16.50
2021,08,01,00,28,16.40
2021,08,01,00,29,16.40
2021,08,01,00,30,16.40
2021,08,01,00,31,16.30
2021,08,01,00,32,16.30
2021,08,01,00,33,16.30
2021,08,01,00,34,16.20
2021,08,01,00,35,16.20
2021,08,01,00,36,16.20
2021,08,01,00,37,16.10
2021,08,01,00,38,16.10
2021,08,01,00,39,16.10
2021,08,01,00,40,16.00
2021,08,01,00,41,16.00
2021,08,01,00,42,15.90
2021,08,01,00,43,15.90
2021,08,01,00,44,15.90
2021,08,01,00,45,15.80
2021,08,01,00,46,15.80
2021,08,01,00,47,15.80
2021,08,01,00,48,15.80
2021,08,01,00,49,15.70
2021,08,01,00,50,15.70
2021,08,01,00,51,15.70
2021,08,01,00,52,15.70
2021,08,01,00,53,15.70
2021,08,01,00,54,15.60
2021,08,01,00,55,15.60
2021,08,01,00,56,15.60
2021,08,01,00,57,15.60
2021,08,01,00,58,15.60
2021,08,01,00,59,15.60
2021,08,01,01,00,15.60
2021,08,01,01,01,15.60
2021,08,01,01,02,15.60
2021,08,01,01,03,15.60
2021,08,01,01,04,15.60
2021,08,01,01,05,15.60
2021,08,01,01,06,15.60
2021,08,01,01,07,15.50
2021,08,01,01,08,15.50
2021,08,01,01,09,15.50
2021,08,01,01,10,15.40
2021,08,01,01,11,15.40
2021,08,01,01,12,15.40
2021,08,01,01,13,15.30
2021,08,01,01,14,15.30
2021,08,01,01,15,15.30
2021,08,01,01,16,15.30
2021,08,01,01,17,15.20
2021,08,01,01,18,15.20
2021,08,01,01,19,15.20
2021,08,01,01,20,15.10
2021,08,01,01,21,15.10
2021,08,01,01,22,15.00
2021,08,01,01,23,15.00
2021,08,01,01,24,14.90
2021,08,01,01,25,14.90
2021,08,01,01,26,14.80
2021,08,01,01,27,14.80
2021,08,01,01,28,14.80
2021,08,01,01,29,14.70
2021,08,01,01,30,14.70
2021,08,01,01,31,14.70
2021,08,01,01,32,14.60
2021,08,01,01,33,14.60
2021,08,01,01,34,14.60
2021,08,01,01,35,14.50
2021,08,01,01,36,14.50
2021,08,01,01,37,14.40
2021,08,01,01,38,14.40
2021,08,01,01,39,14.40
2021,08,01,01,40,14.30
2021,08,01,01,41,14.30
2021,08,01,01,42,14.30
2021,08,01,01,43,14.30
2021,08,01,01,44,14.30
2021,08,01,01,45,14.20
2021,08,01,01,46,14.20
2021,08,01,01,47,14.20
2021,08,01,01,48,14.10
2021,08,01,01,49,14.10
2021,08,01,01,50,14.10
2021,08,01,01,51,14.10
2021,08,01,01,52,14.00
2021,08,01,01,53,14.00
2021,08,01,01,54,14.00
2021,08,01,01,55,14.00
2021,08,01,01,56,13.90
2021,08,01,01,57,13.90
2021,08,01,01,58,13.90
2021,08,01,01,59,13.90
2021,08,01,02,00,13.90
2021,08,01,02,01,13.80
2021,08,01,02,02,13.80
2021,08,01,02,03,13.80
2021,08,01,02,04,13.80
2021,08,01,02,05,13.80
2021,08,01,02,06,13.80
2021,08,01,02,07,13.70
2021,08,01,02,08,13.70
2021,08,01,02,09,13.70
2021,08,01,02,10,13.70
2021,08,01,02,11,13.70
2021,08,01,02,12,13.70
2021,08,01,02,13,13.70
2021,08,01,02,14,13.70
2021,08,01,02,15,13.70
2021,08,01,02,16,13.60
2021,08,01,02,17,13.60
2021,08,01,02,18,13.60
2021,08,01,02,19,13.60
2021,08,01,02,20,13.60
2021,08,01,02,21,13.60
2021,08,01,02,22,13.50
2021,08,01,02,23,13.50
2021,08,01,02,24,13.40
2021,08,01,02,25,13.40
2021,08,01,02,26,13.40
2021,08,01,02,27,13.40
2021,08,01,02,28,13.30
2021,08,01,02,29,13.30
2021,08,01,02,30,13.30
2021,08,01,02,31,13.30
2021,08,01,02,32,13.20
2021,08,01,02,33,13.20
2021,08,01,02,34,13.20
2021,08,01,02,35,13.20
2021,08,01,02,36,13.10
2021,08,01,02,37,13.10
2021,08,01,02,38,13.10
2021,08,01,02,39,13.00
2021,08,01,02,40,13.00
2021,08,01,02,41,13.00
2021,08,01,02,42,12.90
2021,08,01,02,43,12.90
2021,08,01,02,44,12.80
2021,08,01,02,45,12.80
2021,08,01,02,46,12.80
2021,08,01,02,47,12.80
2021,08,01,02,48,12.70
2021,08,01,02,49,12.70
2021,08,01,02,50,12.70
2021,08,01,02,51,12.70
2021,08,01,02,52,12.70
2021,08,01,02,53,12.70
2021,08,01,02,54,12.70
2021,08,01,02,55,12.70
2021,08,01,02,56,12.60
2021,08,01,02,57,12.60
2021,08,01,02,58,12.60
2021,08,01,02,59,12.60
2021,08,01,03,00,12.60
2021,08,01,03,01,12.50
2021,08,01,03,02,12.50
2021,08,01,03,03,12.50
2021,08,01,03,04,12.50
2021,08,01,03,05,12.40
2021,08,01,03,06,12.40
2021,08,01,03,07,12.40
2021,08,01,03,08,12.40
2021,08,01,03,09,12.30
2021,08,01,03,10,12.30
2021,08,01,03,11,12.30
2021,08,01,03,12,12.30
2021,08,01,03,13,12.20
2021,08,01,03,14,12.20
2021,08,01,03,15,12.20
2021,08,01,03,16,12.20
2021,08,01,03,17,12.10
2021,08,01,03,18,12.10
2021,08,01,03,19,12.10
2021,08,01,03,20,12.10
2021,08,01,03,21,12.10
2021,08,01,03,22,12.00
2021,08,01,03,23,12.00
2021,08,01,03,24,11.90
2021,08,01,03,25,11.90
2021,08,01,03,26,11.90
2021,08,01,03,27,11.80
2021,08,01,03,28,11.80
2021,08,01,03,29,11.80
2021,08,01,03,30,11.80
2021,08,01,03,31,11.80
2021,08,01,03,32,11.80
2021,08,01,03,33,11.80
2021,08,01,03,34,11.70
2021,08,01,03,35,11.70
2021,08,01,03,36,11.70
2021,08,01,03,37,11.70
2021,08,01,03,38,11.70
2021,08,01,03,39,11.70
2021,08,01,03,40,11.70
2021,08,01,03,41,11.80
2021,08,01,03,42,11.80
2021,08,01,03,43,11.80
2021,08,01,03,44,11.80
2021,08,01,03,45,11.80
2021,08,01,03,46,11.80
2021,08,01,03,47,11.80
2021,08,01,03,48,11.80
2021,08,01,03,49,11.80
2021,08,01,03,50,11.80
2021,08,01,03,51,11.80
2021,08,01,03,52,11.80
2021,08,01,03,53,11.80
2021,08,01,03,54,11.70
2021,08,01,03,55,11.70
2021,08,01,03,56,11.70
2021,08,01,03,57,11.70
2021,08,01,03,58,11.70
2021,08,01,03,59,11.70
2021,08,01,04,00,11.70
2021,08,01,04,01,11.60
2021,08,01,04,02,11.60
2021,08,01,04,03,11.60
2021,08,01,04,04,11.60
2021,08,01,04,05,11.50
2021,08,01,04,06,11.50
2021,08,01,04,07,11.50
2021,08,01,04,08,11.40
2021,08,01,04,09,11.40
2021,08,01,04,10,11.40
2021,08,01,04,11,11.40
2021,08,01,04,12,11.30
2021,08,01,04,13,11.30
2021,08,01,04,14,11.30
2021,08,01,04,15,11.30
2021,08,01,04,16,11.20
2021,08,01,04,17,11.20
2021,08,01,04,18,11.20
2021,08,01,04,19,11.20
2021,08,01,04,20,11.10
2021,08,01,04,21,11.10
2021,08,01,04,22,11.10
2021,08,01,04,23,11.10
2021,08,01,04,24,11.10
2021,08,01,04,25,11.00
2021,08,01,04,26,11.00
2021,08,01,04,27,10.90
2021,08,01,04,28,10.90
2021,08,01,04,29,10.90
2021,08,01,04,30,10.90
2021,08,01,04,31,10.80
2021,08,01,04,32,10.80
2021,08,01,04,33,10.80
2021,08,01,04,34,10.80
2021,08,01,04,35,10.80
2021,08,01,04,36,10.70
2021,08,01,04,37,10.70
2021,08,01,04,38,10.70
2021,08,01,04,39,10.60
2021,08,01,04,40,10.60
2021,08,01,04,41,10.60
2021,08,01,04,42,10.60
2021,08,01,04,43,10.60
2021,08,01,04,44,10.50
2021,08,01,04,45,10.50
2021,08,01,04,46,10.50
2021,08,01,04,47,10.50
2021,08,01,04,48,10.40
2021,08,01,04,49,10.40
2021,08,01,04,50,10.40
2021,08,01,04,51,10.40
2021,08,01,04,52,10.40
2021,08,01,04,53,10.30
2021,08,01,04,54,10.30
2021,08,01,04,55,10.30
2021,08,01,04,56,10.30
2021,08,01,04,57,10.30
2021,08,01,04,58,10.30
2021,08,01,04,59,10.20
2021,08,01,05,00,10.20
2021,08,01,05,01,10.20
2021,08,01,05,02,10.20
2021,08,01,05,03,10.20
2021,08,01,05,04,10.20
2021,08,01,05,05,10.20
2021,08,01,05,06,10.20
2021,08,01,05,07,10.10
2021,08,01,05,08,10.10
2021,08,01,05,09,10.10
2021,08,01,05,10,10.10
2021,08,01,05,11,10.00
2021,08,01,05,12,10.00
2021,08,01,05,13,10.00
2021,08,01,05,14,10.00
2021,08,01,05,15,9.90
2021,08,01,05,16,9.90
2021,08,01,05,17,9.90
2021,08,01,05,18,9.90
2021,08,01,05,19,9.80
2021,08,01,05,20,9.80
2021,08,01,05,21,9.80
2021,08,01,05,22,9.80
2021,08,01,05,23,9.80
2021,08,01,05,24,9.80
2021,08,01,05,25,9.80
2021,08,01,05,26,9.80
2021,08,01,05,27,9.80
2021,08,01,05,28,9.80
2021,08,01,05,29,9.80
2021,08,01,05,30,9.70
2021,08,01,05,31,9.70
2021,08,01,05,32,9.70
2021,08,01,05,33,9.70
2021,08,01,05,34,9.70
2021,08,01,05,35,9.70
2021,08,01,05,36,9.70
2021,08,01,05,37,9.70
2021,08,01,05,38,9.70
2021,08,01,05,39,9.70
2021,08,01,05,40,9.70
2021,08,01,05,41,9.70
2021,08,01,05,42,9.70
2021,08,01,05,43,9.60
2021,08,01,05,44,9.60
2021,08,01,05,45,9.60
2021,08,01,05,46,9.60
2021,08,01,05,47,9.60
2021,08,01,05,48,9.50
2021,08,01,05,49,9.50
2021,08,01,05,50,9.50
2021,08,01,05,51,9.50
2021,08,01,05,52,9.40
2021,08,01,05,53,9.40
2021,08,01,05,54,9.40
2021,08,01,05,55,9.40
2021,08,01,05,56,9.40
2021,08,01,05,57,9.40
2021,08,01,05,58,9.30
2021,08,01,05,59,9.30
2021,08,01,06,00,9.30
2021,08,01,06,01,9.30
2021,08,01,06,02,9.30
2021,08,01,06,03,9.20
2021,08,01,06,04,9.20
2021,08,01,06,05,9.20
2021,08,01,06,06,9.20
2021,08,01,06,07,9.20
2021,08,01,06,08,9.20
2021,08,01,06,09,9.20
2021,08,01,06,10,9.20
2021,08,01,06,11,9.20
2021,08,01,06,12,9.20
2021,08,01,06,13,9.20
2021,08,01,06,14,9.20
2021,08,01,06,15,9.20
2021,08,01,06,16,9.20
2021,08,01,06,17,9.20
2021,08,01,06,18,9.20
2021,08,01,06,19,9.20
2021,08,01,06,20,9.20
2021,08,01,06,21,9.20
2021,08,01,06,22,9.20
2021,08,01,06,23,9.20
2021,08,01,06,24,9.20
2021,08,01,06,25,9.20
2021,08,01,06,26,9.20
2021,08,01,06,27,9.30
2021,08,01,06,28,9.20
2021,08,01,06,29,9.30
2021,08,01,06,30,9.20
2021,08,01,06,31,9.20
2021,08,01,06,32,9.20
2021,08,01,06,33,9.20
2021,08,01,06,34,9.20
2021,08,01,06,35,9.30
2021,08,01,06,36,9.30
2021,08,01,06,37,9.30
2021,08,01,06,38,9.30
2021,08,01,06,39,9.30
2021,08,01,06,40,9.30
2021,08,01,06,41,9.30
2021,08,01,06,42,9.30
2021,08,01,06,43,9.30
2021,08,01,06,44,9.30
2021,08,01,06,45,9.30
2021,08,01,06,46,9.30
2021,08,01,06,47,9.30
2021,08,01,06,48,9.30
2021,08,01,06,49,9.30
2021,08,01,06,50,9.30
2021,08,01,06,51,9.30
2021,08,01,06,52,9.30
2021,08,01,06,53,9.20
2021,08,01,06,54,9.20
2021,08,01,06,55,9.20
2021,08,01,06,56,9.20
2021,08,01,06,57,9.20
2021,08,01,06,58,9.20
2021,08,01,06,59,9.20
2021,08,01,07,00,9.20
2021,08,01,07,01,9.20
2021,08,01,07,02,9.20
2021,08,01,07,03,9.20
2021,08,01,07,04,9.20
2021,08,01,07,05,9.20
2021,08,01,07,06,9.20
2021,08,01,07,07,9.20
2021,08,01,07,08,9.20
2021,08,01,07,09,9.20
2021,08,01,07,10,9.20
2021,08,01,07,11,9.20
2021,08,01,07,12,9.20
2021,08,01,07,13,9.20
2021,08,01,07,14,9.20
2021,08,01,07,15,9.20
2021,08,01,07,16,9.20
2021,08,01,07,17,9.20
2021,08,01,07,18,9.20
2021,08,01,07,19,9.20
2021,08,01,07,20,9.20
2021,08,01,07,21,9.20
2021,08,01,07,22,9.20
2021,08,01,07,23,9.20
2021,08,01,07,24,9.20
2021,08,01,07,25,9.20
2021,08,01,07,26,9.20
2021,08,01,07,27,9.20
2021,08,01,07,28,9.20
2021,08,01,07,29,9.20
2021,08,01,07,30,9.20
2021,08,01,07,31,9.30
2021,08,01,07,32,9.30
2021,08,01,07,33,9.30
2021,08,01,07,34,9.30
2021,08,01,07,35,9.30
2021,08,01,07,36,9.30
2021,08,01,07,37,9.30
2021,08,01,07,38,9.30
2021,08,01,07,39,9.30
2021,08,01,07,40,9.30
2021,08,01,07,41,9.30
2021,08,01,07,42,9.30
2021,08,01,07,43,9.30
2021,08,01,07,44,9.30
2021,08,01,07,45,9.30
2021,08,01,07,46,9.30
2021,08,01,07,47,9.30
2021,08,01,07,48,9.30
2021,08,01,07,49,9.30
2021,08,01,07,50,9.30
2021,08,01,07,51,9.30
2021,08,01,07,52,9.30
2021,08,01,07,53,9.30
2021,08,01,07,54,9.30
2021,08,01,07,55,9.30
2021,08,01,07,56,9.40
2021,08,01,07,57,9.40
2021,08,01,07,58,9.40
2021,08,01,07,59,9.40
2021,08,01,08,00,9.40
2021,08,01,08,01,9.40
2021,08,01,08,02,9.40
2021,08,01,08,03,9.40
2021,08,01,08,04,9.40
2021,08,01,08,05,9.40
2021,08,01,08,06,9.40
2021,08,01,08,07,9.40
2021,08,01,08,08,9.40
2021,08,01,08,09,9.40
2021,08,01,08,10,9.40
2021,08,01,08,11,9.40
2021,08,01,08,12,9.50
2021,08,01,08,13,9.50
2021,08,01,08,14,9.50
2021,08,01,08,15,9.50
2021,08,01,08,16,9.60
2021,08,01,08,17,9.60
2021,08,01,08,18,9.60
2021,08,01,08,19,9.60
2021,08,01,08,20,9.60
2021,08,01,08,21,9.60
2021,08,01,08,22,9.60
2021,08,01,08,23,9.70
2021,08,01,08,24,9.70
2021,08,01,08,25,9.80
2021,08,01,08,26,9.80
2021,08,01,08,27,9.90
2021,08,01,08,28,9.90
2021,08,01,08,29,10.00
2021,08,01,08,30,10.10
2021,08,01,08,31,10.20
2021,08,01,08,32,10.20
2021,08,01,08,33,10.30
2021,08,01,08,34,10.30
2021,08,01,08,35,10.40
2021,08,01,08,36,10.50
2021,08,01,08,37,10.60
2021,08,01,08,38,10.60
2021,08,01,08,39,10.70
2021,08,01,08,40,10.80
2021,08,01,08,41,10.80
2021,08,01,08,42,10.90
2021,08,01,08,43,10.90
2021,08,01,08,44,11.00
2021,08,01,08,45,11.10
2021,08,01,08,46,11.10
2021,08,01,08,47,11.20
2021,08,01,08,48,11.20
2021,08,01,08,49,11.30
2021,08,01,08,50,11.30
2021,08,01,08,51,11.30
2021,08,01,08,52,11.30
2021,08,01,08,53,11.40
2021,08,01,08,54,11.40
2021,08,01,08,55,11.40
2021,08,01,08,56,11.50
2021,08,01,08,57,11.50
2021,08,01,08,58,11.50
2021,08,01,08,59,11.60
2021,08,01,09,00,11.60
2021,08,01,09,01,11.70
2021,08,01,09,02,11.80
2021,08,01,09,03,11.80
2021,08,01,09,04,11.90
2021,08,01,09,05,12.00
2021,08,01,09,06,12.10
2021,08,01,09,07,12.20
2021,08,01,09,08,12.30
2021,08,01,09,09,12.40
2021,08,01,09,10,12.50
2021,08,01,09,11,12.60
2021,08,01,09,12,12.70
2021,08,01,09,13,12.70
2021,08,01,09,14,12.80
2021,08,01,09,15,12.90
2021,08,01,09,16,12.90
2021,08,01,09,17,13.00
2021,08,01,09,18,13.10
2021,08,01,09,19,13.10
2021,08,01,09,20,13.20
2021,08,01,09,21,13.30
2021,08,01,09,22,13.40
2021,08,01,09,23,13.50
2021,08,01,09,24,13.60
2021,08,01,09,25,13.70
2021,08,01,09,26,13.80
2021,08,01,09,27,13.80
2021,08,01,09,28,13.90
2021,08,01,09,29,14.00
2021,08,01,09,30,14.10
2021,08,01,09,31,14.10
2021,08,01,09,32,14.20
2021,08,01,09,33,14.30
2021,08,01,09,34,14.30
2021,08,01,09,35,14.40
2021,08,01,09,36,14.40
2021,08,01,09,37,14.50
2021,08,01,09,38,14.50
2021,08,01,09,39,14.60
2021,08,01,09,40,14.60
2021,08,01,09,41,14.70
2021,08,01,09,42,14.70
2021,08,01,09,43,14.80
2021,08,01,09,44,14.80
2021,08,01,09,45,14.90
2021,08,01,09,46,14.90
2021,08,01,09,47,14.90
2021,08,01,09,48,15.00
2021,08,01,09,49,15.00
2021,08,01,09,50,15.00
2021,08,01,09,51,15.10
2021,08,01,09,52,15.10
2021,08,01,09,53,15.20
2021,08,01,09,54,15.30
2021,08,01,09,55,15.30
2021,08,01,09,56,15.40
2021,08,01,09,57,15.40
2021,08,01,09,58,15.50
2021,08,01,09,59,15.60
2021,08,01,10,00,15.60
2021,08,01,10,01,15.70
2021,08,01,10,02,15.70
2021,08,01,10,03,15.80
2021,08,01,10,04,15.80
2021,08,01,10,05,15.90
2021,08,01,10,06,16.00
2021,08,01,10,07,16.10
2021,08,01,10,08,16.10
2021,08,01,10,09,16.10
2021,08,01,10,10,16.20
2021,08,01,10,11,16.20
2021,08,01,10,12,16.20
2021,08,01,10,13,16.20
2021,08,01,10,14,16.20
2021,08,01,10,15,16.30
2021,08,01,10,16,16.30
2021,08,01,10,17,16.30
2021,08,01,10,18,16.40
2021,08,01,10,19,16.40
2021,08,01,10,20,16.50
2021,08,01,10,21,16.60
2021,08,01,10,22,16.60
2021,08,01,10,23,16.70
2021,08,01,10,24,16.80
2021,08,01,10,25,16.80
2021,08,01,10,26,16.90
2021,08,01,10,27,17.00
2021,08,01,10,28,17.10
2021,08,01,10,29,17.10
2021,08,01,10,30,17.20
2021,08,01,10,31,17.30
2021,08,01,10,32,17.30
2021,08,01,10,33,17.40
2021,08,01,10,34,17.50
2021,08,01,10,35,17.50
2021,08,01,10,36,17.60
2021,08,01,10,37,17.60
2021,08,01,10,38,17.60
2021,08,01,10,39,17.70
2021,08,01,10,40,17.70
2021,08,01,10,41,17.80
2021,08,01,10,42,17.80
2021,08,01,10,43,17.80
2021,08,01,10,44,17.90
2021,08,01,10,45,17.90
2021,08,01,10,46,17.90
2021,08,01,10,47,17.90
2021,08,01,10,48,17.90
2021,08,01,10,49,17.90
2021,08,01,10,50,18.00
2021,08,01,10,51,18.00
2021,08,01,10,52,18.00
2021,08,01,10,53,18.00
2021,08,01,10,54,18.00
2021,08,01,10,55,18.00
2021,08,01,10,56,18.10
2021,08,01,10,57,18.10
2021,08,01,10,58,18.10
2021,08,01,10,59,18.10
2021,08,01,11,00,18.10
2021,08,01,11,01,18.10
2021,08,01,11,02,18.20
2021,08,01,11,03,18.20
2021,08,01,11,04,18.20
2021,08,01,11,05,18.30
2021,08,01,11,06,18.30
2021,08,01,11,07,18.40
2021,08,01,11,08,18.50
2021,08,01,11,09,18.60
2021,08,01,11,10,18.60
2021,08,01,11,11,18.70
2021,08,01,11,12,18.80
2021,08,01,11,13,18.90
2021,08,01,11,14,19.00
2021,08,01,11,15,19.10
2021,08,01,11,16,19.20
2021,08,01,11,17,19.30
2021,08,01,11,18,19.30
2021,08,01,11,19,19.30
2021,08,01,11,20,19.40
2021,08,01,11,21,19.40
2021,08,01,11,22,19.40
2021,08,01,11,23,19.50
2021,08,01,11,24,19.50
2021,08,01,11,25,19.60
2021,08,01,11,26,19.60
2021,08,01,11,27,19.70
2021,08,01,11,28,19.80
2021,08,01,11,29,19.90
2021,08,01,11,30,20.00
2021,08,01,11,31,20.10
2021,08,01,11,32,20.20
2021,08,01,11,33,20.20
2021,08,01,11,34,20.30
2021,08,01,11,35,20.40
2021,08,01,11,36,20.40
2021,08,01,11,37,20.40
2021,08,01,11,38,20.40
2021,08,01,11,39,20.40
2021,08,01,11,40,20.40
2021,08,01,11,41,20.40
2021,08,01,11,42,20.40
2021,08,01,11,43,20.40
2021,08,01,11,44,20.40
2021,08,01,11,45,20.30
2021,08,01,11,46,20.30
2021,08,01,11,47,20.30
2021,08,01,11,48,20.30
2021,08,01,11,49,20.30
2021,08,01,11,50,20.30
2021,08,01,11,51,20.30
2021,08,01,11,52,20.40
2021,08,01,11,53,20.40
2021,08,01,11,54,20.50
2021,08,01,11,55,20.50
2021,08,01,11,56,20.60
2021,08,01,11,57,20.70
2021,08,01,11,58,20.70
2021,08,01,11,59,20.80
2021,08,01,12,00,20.90
2021,08,01,12,01,20.90
2021,08,01,12,02,21.00
2021,08,01,12,03,21.10
2021,08,01,12,04,21.20
2021,08,01,12,05,21.20
2021,08,01,12,06,21.30
2021,08,01,12,07,21.30
2021,08,01,12,08,21.30
2021,08,01,12,09,21.40
2021,08,01,12,10,21.40
2021,08,01,12,11,21.50
2021,08,01,12,12,21.60
2021,08,01,12,13,21.60
2021,08,01,12,14,21.70
2021,08,01,12,15,21.70
2021,08,01,12,16,21.80
2021,08,01,12,17,21.80
2021,08,01,12,18,21.80
2021,08,01,12,19,21.80
2021,08,01,12,20,21.90
2021,08,01,12,21,21.90
2021,08,01,12,22,22.00
2021,08,01,12,23,22.10
2021,08,01,12,24,22.10
2021,08,01,12,25,22.20
2021,08,01,12,26,22.30
2021,08,01,12,27,22.30
2021,08,01,12,28,22.40
2021,08,01,12,29,22.50
2021,08,01,12,30,22.50
2021,08,01,12,31,22.60
2021,08,01,12,32,22.70
2021,08,01,12,33,22.70
2021,08,01,12,34,22.80
2021,08,01,12,35,22.90
2021,08,01,12,36,22.90
2021,08,01,12,37,23.00
2021,08,01,12,38,23.10
2021,08,01,12,39,23.10
2021,08,01,12,40,23.20
2021,08,01,12,41,23.20
2021,08,01,12,42,23.30
2021,08,01,12,43,23.30
2021,08,01,12,44,23.40
2021,08,01,12,45,23.40
2021,08,01,12,46,23.50
2021,08,01,12,47,23.50
2021,08,01,12,48,23.60
2021,08,01,12,49,23.60
2021,08,01,12,50,23.70
2021,08,01,12,51,23.70
2021,08,01,12,52,23.80
2021,08,01,12,53,23.80
2021,08,01,12,54,23.90
2021,08,01,12,55,23.90
2021,08,01,12,56,24.00
2021,08,01,12,57,24.10
2021,08,01,12,58,24.20
2021,08,01,12,59,24.20
2021,08,01,13,00,24.20
2021,08,01,13,01,24.30
2021,08,01,13,02,24.40
2021,08,01,13,03,24.50
2021,08,01,13,04,24.50
2021,08,01,13,05,24.60
2021,08,01,13,06,24.60
2021,08,01,13,07,24.70
2021,08,01,13,08,24.70
2021,08,01,13,09,24.80
2021,08,01,13,10,24.90
2021,08,01,13,11,24.90
2021,08,01,13,12,25.00
2021,08,01,13,13,25.10
2021,08,01,13,14,25.10
2021,08,01,13,15,25.10
2021,08,01,13,16,25.00
2021,08,01,13,17,25.00
2021,08,01,13,18,25.00
2021,08,01,13,19,25.00
2021,08,01,13,20,25.00
2021,08,01,13,21,25.10
2021,08,01,13,22,25.10
2021,08,01,13,23,25.20
2021,08,01,13,24,25.20
2021,08,01,13,25,25.30
2021,08,01,13,26,25.40
2021,08,01,13,27,25.50
2021,08,01,13,28,25.50
2021,08,01,13,29,25.60
2021,08,01,13,30,25.60
2021,08,01,13,31,25.70
2021,08,01,13,32,25.70
2021,08,01,13,33,25.70
2021,08,01,13,34,25.80
2021,08,01,13,35,25.80
2021,08,01,13,36,25.80
2021,08,01,13,37,25.90
2021,08,01,13,38,25.90
2021,08,01,13,39,26.00
2021,08,01,13,40,26.10
2021,08,01,13,41,26.20
2021,08,01,13,42,26.20
2021,08,01,13,43,26.30
2021,08,01,13,44,26.30
2021,08,01,13,45,26.40
2021,08,01,13,46,26.40
2021,08,01,13,47,26.50
2021,08,01,13,48,26.50
2021,08,01,13,49,26.50
2021,08,01,13,50,26.60
2021,08,01,13,51,26.60
2021,08,01,13,52,26.60
2021,08,01,13,53,26.60
2021,08,01,13,54,26.60
2021,08,01,13,55,26.70
2021,08,01,13,56,26.70
2021,08,01,13,57,26.70
2021,08,01,13,58,26.70
2021,08,01,13,59,26.70
2021,08,01,14,00,26.60
2021,08,01,14,01,26.60
2021,08,01,14,02,26.60
2021,08,01,14,03,26.60
2021,08,01,14,04,26.70
2021,08,01,14,05,26.70
2021,08,01,14,06,26.70
2021,08,01,14,07,26.80
2021,08,01,14,08,26.80
2021,08,01,14,09,26.80
2021,08,01,14,10,26.90
2021,08,01,14,11,26.90
2021,08,01,14,12,27.00
2021,08,01,14,13,27.00
2021,08,01,14,14,27.10
2021,08,01,14,15,27.10
2021,08,01,14,16,27.20
2021,08,01,14,17,27.30
2021,08,01,14,18,27.30
2021,08,01,14,19,27.30
2021,08,01,14,20,27.40
2021,08,01,14,21,27.40
2021,08,01,14,22,27.50
2021,08,01,14,23,27.60
2021,08,01,14,24,27.60
2021,08,01,14,25,27.70
2021,08,01,14,26,27.80
2021,08,01,14,27,27.80
2021,08,01,14,28,27.90
2021,08,01,14,29,28.00
2021,08,01,14,30,28.00
2021,08,01,14,31,28.10
2021,08,01,14,32,28.10
2021,08,01,14,33,28.10
2021,08,01,14,34,28.10
2021,08,01,14,35,28.10
2021,08,01,14,36,28.10
2021,08,01,14,37,28.10
2021,08,01,14,38,28.20
2021,08,01,14,39,28.20
2021,08,01,14,40,28.20
2021,08,01,14,41,28.20
2021,08,01,14,42,28.20
2021,08,01,14,43,28.20
2021,08,01,14,44,28.20
2021,08,01,14,45,28.20
2021,08,01,14,46,28.20
2021,08,01,14,47,28.30
2021,08,01,14,48,28.30
2021,08,01,14,49,28.30
2021,08,01,14,50,28.30
2021,08,01,14,51,28.30
2021,08,01,14,52,28.40
2021,08,01,14,53,28.40
2021,08,01,14,54,28.40
2021,08,01,14,55,28.40
2021,08,01,14,56,28.50
2021,08,01,14,57,28.50
2021,08,01,14,58,28.60
2021,08,01,14,59,28.60
2021,08,01,15,00,28.70
2021,08,01,15,01,28.80
2021,08,01,15,02,28.90
2021,08,01,15,03,28.90
2021,08,01,15,04,28.90
2021,08,01,15,05,28.90
2021,08,01,15,06,28.90
2021,08,01,15,07,28.90
2021,08,01,15,08,28.90
2021,08,01,15,09,28.90
2021,08,01,15,10,28.90
2021,08,01,15,11,28.90
2021,08,01,15,12,28.90
2021,08,01,15,13,28.90
2021,08,01,15,14,28.90
2021,08,01,15,15,28.90
2021,08,01,15,16,29.00
2021,08,01,15,17,29.00
2021,08,01,15,18,29.00
2021,08,01,15,19,29.10
2021,08,01,15,20,29.10
2021,08,01,15,21,29.10
2021,08,01,15,22,29.10
2021,08,01,15,23,29.10
2021,08,01,15,24,29.20
2021,08,01,15,25,29.20
2021,08,01,15,26,29.20
2021,08,01,15,27,29.20
2021,08,01,15,28,29.10
2021,08,01,15,29,29.10
2021,08,01,15,30,29.10
2021,08,01,15,31,29.10
2021,08,01,15,32,29.10
2021,08,01,15,33,29.10
2021,08,01,15,34,29.10
2021,08,01,15,35,29.10
2021,08,01,15,36,29.10
2021,08,01,15,37,29.10
2021,08,01,15,38,29.10
2021,08,01,15,39,29.10
2021,08,01,15,40,29.10
2021,08,01,15,41,29.10
2021,08,01,15,42,29.10
2021,08,01,15,43,29.20
2021,08,01,15,44,29.20
2021,08,01,15,45,29.20
2021,08,01,15,46,29.20
2021,08,01,15,47,29.20
2021,08,01,15,48,29.30
2021,08,01,15,49,29.30
2021,08,01,15,50,29.30
2021,08,01,15,51,29.30
2021,08,01,15,52,29.30
2021,08,01,15,53,29.40
2021,08,01,15,54,29.40
2021,08,01,15,55,29.40
2021,08,01,15,56,29.40
2021,08,01,15,57,29.40
2021,08,01,15,58,29.40
2021,08,01,15,59,29.50
2021,08,01,16,00,29.50
2021,08,01,16,01,29.50
2021,08,01,16,02,29.60
2021,08,01,16,03,29.60
2021,08,01,16,04,29.60
2021,08,01,16,05,29.60
2021,08,01,16,06,29.70
2021,08,01,16,07,29.70
2021,08,01,16,08,29.70
2021,08,01,16,09,29.70
2021,08,01,16,10,29.80
2021,08,01,16,11,29.80
2021,08,01,16,12,29.80
2021,08,01,16,13,29.80
2021,08,01,16,14,29.80
2021,08,01,16,15,29.80
2021,08,01,16,16,29.80
2021,08,01,16,17,29.80
2021,08,01,16,18,29.80
2021,08,01,16,19,29.80
2021,08,01,16,20,29.80
2021,08,01,16,21,29.80
2021,08,01,16,22,29.90
2021,08,01,16,23,29.90
2021,08,01,16,24,29.90
2021,08,01,16,25,29.90
2021,08,01,16,26,29.90
2021,08,01,16,27,29.90
2021,08,01,16,28,29.90
2021,08,01,16,29,29.90
2021,08,01,16,30,29.90
2021,08,01,16,31,29.90
2021,08,01,16,32,29.90
2021,08,01,16,33,29.90
2021,08,01,16,34,29.90
2021,08,01,16,35,29.90
2021,08,01,16,36,29.90
2021,08,01,16,37,29.90
2021,08,01,16,38,30.00
2021,08,01,16,39,30.00
2021,08,01,16,40,30.00
2021,08,01,16,41,30.00
2021,08,01,16,42,30.00
2021,08,01,16,43,30.00
2021,08,01,16,44,29.90
2021,08,01,16,45,29.90
2021,08,01,16,46,30.00
2021,08,01,16,47,30.00
2021,08,01,16,48,30.00
2021,08,01,16,49,30.00
2021,08,01,16,50,30.10
2021,08,01,16,51,30.10
2021,08,01,16,52,30.10
2021,08,01,16,53,30.10
2021,08,01,16,54,30.10
2021,08,01,16,55,30.10
2021,08,01,16,56,30.20
2021,08,01,16,57,30.20
2021,08,01,16,58,30.30
2021,08,01,16,59,30.30
2021,08,01,17,00,30.30
2021,08,01,17,01,30.30
2021,08,01,17,02,30.30
2021,08,01,17,03,30.30
2021,08,01,17,04,30.20
2021,08,01,17,05,30.20
2021,08,01,17,06,30.20
2021,08,01,17,07,30.20
2021,08,01,17,08,30.20
2021,08,01,17,09,30.30
2021,08,01,17,10,30.30
2021,08,01,17,11,30.30
2021,08,01,17,12,30.30
2021,08,01,17,13,30.20
2021,08,01,17,14,30.30
2021,08,01,17,15,30.30
2021,08,01,17,16,30.30
2021,08,01,17,17,30.30
2021,08,01,17,18,30.30
2021,08,01,17,19,30.30
2021,08,01,17,20,30.30
2021,08,01,17,21,30.30
2021,08,01,17,22,30.30
2021,08,01,17,23,30.30
2021,08,01,17,24,30.30
2021,08,01,17,25,30.20
2021,08,01,17,26,30.20
2021,08,01,17,27,30.20